FW8419 Weather Reports


Display with metric or nautical units.
time (UTC)temp
F
wind
direction
speed
MPH
gust
MPH
rain 1hr
in
rain 24hr
in
rain mn
in
humidity
%
barometer
mb
20260503032122 71 230 1.0 5.0 0.00 0.00 0.00 49 1012.6
20260503031123 72 257 1.0 8.0 0.00 0.00 0.00 48 1012.6
20260503030124 73 298 2.0 6.0 0.00 0.00 0.00 47 1012.6
20260503025122 73 297 2.0 8.0 0.00 0.00 0.00 46 1012.4
20260503024145 74 283 1.0 5.0 0.00 0.00 0.00 46 1012.3
20260503023122 75 274 1.0 6.0 0.00 0.00 0.00 45 1012.4
20260503022124 76 283 1.0 5.0 0.00 0.00 0.00 45 1012.4
20260503021124 76 278 2.0 6.0 0.00 0.00 0.00 45 1012.5
20260503020122 76 286 2.0 11.0 0.00 0.00 0.00 44 1012.5
20260503015122 76 281 2.0 10.0 0.00 0.00 0.00 44 1012.6
20260503014122 77 269 3.0 11.0 0.00 0.00 0.00 42 1012.6
20260503013122 78 263 3.0 10.0 0.00 0.00 0.00 41 1012.7
20260503012122 79 276 3.0 11.0 0.00 0.00 0.00 40 1012.7
20260503011123 79 288 3.0 10.0 0.00 0.00 0.00 40 1012.7
20260503010143 80 301 2.0 11.0 0.00 0.00 0.00 39 1012.7
20260503005145 79 320 3.0 8.0 0.00 0.00 0.00 39 1012.8
20260503004122 79 335 3.0 13.0 0.00 0.00 0.00 39 1012.8
20260503003122 79 324 4.0 13.0 0.00 0.00 0.00 39 1012.8
20260503002148 79 325 3.0 13.0 0.00 0.00 0.00 39 1013.0
20260503002144 79 323 3.0 13.0 0.00 0.00 0.00 40 1013.0
20260503001123 80 302 4.0 13.0 0.00 0.00 0.00 40 1013.1
20260503000124 80 321 3.0 10.0 0.00 0.00 0.00 41 1013.1
20260502235122 79 305 3.0 11.0 0.00 0.00 0.00 41 1013.2
20260502234122 79 316 2.0 8.0 0.00 0.00 0.00 44 1013.3
20260502233143 78 298 3.0 13.0 0.00 0.00 0.00 44 1013.4
20260502232122 78 288 4.0 14.0 0.00 0.00 0.00 45 1013.5
20260502231123 78 287 4.0 13.0 0.00 0.00 0.00 46 1013.6
20260502230143 78 299 3.0 14.0 0.00 0.00 0.00 46 1013.7
20260502225143 77 309 2.0 13.0 0.00 0.00 0.00 47 1013.8
20260502224122 76 332 3.0 13.0 0.00 0.00 0.00 48 1014.0
20260502223122 76 338 3.0 14.0 0.00 0.00 0.00 47 1014.2
20260502222122 76 322 4.0 16.0 0.00 0.00 0.00 46 1014.3
20260502221122 75 302 4.0 13.0 0.00 0.00 0.00 49 1014.4
20260502220122 75 284 3.0 13.0 0.00 0.00 0.00 50 1014.5
20260502215145 75 279 3.0 13.0 0.00 0.00 0.00 50 1014.7
20260502214122 74 276 5.0 14.0 0.00 0.00 0.00 49 1014.9
20260502213123 74 275 3.0 16.0 0.00 0.00 0.00 49 1015.0
20260502212122 74 283 6.0 19.0 0.00 0.00 0.00 49 1015.0
20260502211124 74 277 4.0 13.0 0.00 0.00 0.00 50 1015.0
20260502210124 74 263 4.0 18.0 0.00 0.00 0.00 51 1015.1
20260502205122 73 270 5.0 16.0 0.00 0.00 0.00 52 1015.3
20260502204122 73 269 5.0 18.0 0.00 0.00 0.00 53 1015.4
20260502203122 73 270 6.0 19.0 0.00 0.00 0.00 51 1015.6
20260502202122 73 248 5.0 16.0 0.00 0.00 0.00 50 1015.6
20260502201143 72 253 6.0 18.0 0.00 0.00 0.00 50 1015.7
20260502200124 72 271 5.0 18.0 0.00 0.00 0.00 52 1015.8
20260502195143 72 274 5.0 18.0 0.00 0.00 0.00 52 1016.0
20260502194145 71 262 4.0 18.0 0.00 0.00 0.00 55 1016.0
20260502193122 71 279 5.0 14.0 0.00 0.00 0.00 54 1016.2
20260502192145 70 271 3.0 11.0 0.00 0.00 0.00 57 1016.2
20260502191123 70 283 5.0 16.0 0.00 0.00 0.00 57 1016.3
20260502190122 70 287 5.0 14.0 0.00 0.00 0.00 56 1016.5
20260502185124 70 274 4.0 13.0 0.00 0.00 0.00 58 1016.4
20260502184122 70 281 2.0 10.0 0.00 0.00 0.00 58 1016.5
20260502183122 69 236 3.0 11.0 0.00 0.00 0.00 61 1016.6
20260502182123 68 221 1.0 5.0 0.00 0.00 0.00 61 1016.6
20260502181122 67 305 1.0 3.0 0.00 0.00 0.00 63 1016.6
20260502180124 66 350 2.0 6.0 0.00 0.00 0.00 65 1016.7
20260502170122 63 22 2.0 6.0 0.00 0.00 0.00 73 1017.2
20260502164143 62 24 3.0 11.0 0.00 0.00 0.00 73 1017.5
20260502163123 62 32 2.0 5.0 0.00 0.00 0.00 74 1017.5
20260502162122 61 28 1.0 5.0 0.00 0.00 0.00 76 1017.5
20260502161122 61 11 2.0 8.0 0.00 0.00 0.00 78 1017.7
20260502160124 60 13 1.0 6.0 0.00 0.00 0.00 80 1017.6
20260502152122 58 228 1.0 5.0 0.00 0.00 0.00 84 1017.5
20260502151122 56 222 0.0 3.0 0.00 0.00 0.00 88 1017.4
20260502150124 56 222 1.0 3.0 0.00 0.00 0.00 87 1017.4
20260502140122 54 0 0.0 0.0 0.00 0.00 0.00 91 1016.9
20260502130123 53 0 0.0 0.0 0.00 0.00 0.00 91 1016.4
20260502123143 54 222 0.0 3.0 0.00 0.00 0.00 91 1016.2
20260502122122 54 0 0.0 2.0 0.00 0.00 0.00 91 1016.2
20260502121122 54 222 0.0 3.0 0.00 0.00 0.00 90 1016.2
20260502120122 54 0 0.0 0.0 0.00 0.00 0.00 90 1016.2
20260502115122 54 222 0.0 3.0 0.00 0.00 0.00 88 1016.2
20260502114122 55 222 0.0 3.0 0.00 0.00 0.00 88 1016.1
20260502113122 55 0 0.0 0.0 0.00 0.00 0.00 86 1016.1
20260502112122 55 0 0.0 0.0 0.00 0.00 0.00 86 1015.8
20260502111144 55 0 0.0 0.0 0.00 0.00 0.00 85 1015.8
20260502110122 55 0 0.0 0.0 0.00 0.00 0.00 85 1015.9
20260502105122 55 0 0.0 0.0 0.00 0.00 0.00 86 1016.0
20260502104143 55 0 0.0 0.0 0.00 0.00 0.00 85 1015.9
20260502103122 55 0 0.0 0.0 0.00 0.00 0.00 85 1015.8
20260502102122 56 0 0.0 0.0 0.00 0.00 0.00 86 1015.8
20260502101122 56 0 0.0 0.0 0.00 0.00 0.00 86 1015.8
20260502100123 55 0 0.0 0.0 0.00 0.00 0.00 85 1015.8
20260502091122 55 81 0.0 2.0 0.00 0.00 0.00 83 1015.5
20260502090145 55 81 0.0 2.0 0.00 0.00 0.00 81 1015.4
20260502071123 58 0 0.0 0.0 0.00 0.00 0.00 75 1014.9
20260502070122 58 24 0.0 2.0 0.00 0.00 0.00 75 1015.0
20260502065124 59 327 0.0 2.0 0.00 0.00 0.00 76 1015.0
20260502064122 59 0 0.0 0.0 0.00 0.00 0.00 74 1014.8
20260502063123 59 0 0.0 0.0 0.00 0.00 0.00 74 1014.7
20260502062143 60 0 0.0 0.0 0.00 0.00 0.00 73 1014.7
20260502061124 60 327 0.0 2.0 0.00 0.00 0.00 72 1014.6
20260502060122 60 0 0.0 0.0 0.00 0.00 0.00 71 1014.4
20260502055122 61 0 0.0 0.0 0.00 0.00 0.00 71 1014.4
20260502054124 61 0 0.0 2.0 0.00 0.00 0.00 70 1014.3
20260502053122 61 0 0.0 0.0 0.00 0.00 0.00 69 1014.2
20260502052124 62 0 0.0 0.0 0.00 0.00 0.00 68 1014.2
20260502051143 62 0 0.0 2.0 0.00 0.00 0.00 67 1014.2
20260502050122 63 0 0.0 0.0 0.00 0.00 0.00 65 1014.1
20260502045122 63 327 0.0 2.0 0.00 0.00 0.00 64 1014.1
20260502044143 64 327 0.0 2.0 0.00 0.00 0.00 63 1014.1
20260502043124 64 0 0.0 0.0 0.00 0.00 0.00 62 1014.0
20260502042122 65 0 0.0 0.0 0.00 0.00 0.00 60 1014.0
20260502041122 65 0 0.0 2.0 0.00 0.00 0.00 59 1013.8
20260502040122 66 306 0.0 3.0 0.00 0.00 0.00 58 1013.8
20260502035122 66 287 2.0 6.0 0.00 0.00 0.00 57 1013.6
20260502034143 67 283 2.0 10.0 0.00 0.00 0.00 55 1013.6
20260502033143 68 298 2.0 6.0 0.00 0.00 0.00 54 1013.6